Content
SEND FEEDBACK

Daily
Averages
Monthly
Summary
United States of America

PACIFIC GROVE, CALIFORNIA


Home > North America > United States > California
Elevation: 331 feet     Latitude: 36 36N     Longitude: 121 55W

WEATHER
 
SELECT A DAY
Number of Records: 192,056;   Date Range: 7/1/96 - 8/12/14
 
SHARE

PRINT THIS DATA

[ ← Previous Day ]
WEATHER ALMANAC - FEBRUARY 4, 2013
[ Next Day → ]
[ °C ]   °F
Weather ElementAverageHighLow
Temperature45.9 °F53.6 °F (3:01 pm)39 °F (4:54 am)
Dewpoint43 °F46.9 °F (2:54 pm)37.4 °F (5:44 am)
Humidity89.8 %100 % (6:34 am)77 % (11:54 am)
Barometer30.15 in30.22 in (9:54 am)30.09 in (3:01 pm)
Wind Speed4.6 mph10.4 mph (1:15 pm)
Weather ElementAverage
Visibility6.8 mi
Wind DirectionS (182.9 °)

Weather ElementTotal
Precipitation---
Heating Degree Days18.7 (Base 65)
Averaged from 35 records on February 4, 2013
WEATHER CONDITIONS BREAKOUT
WIND DIRECTION BREAKOUT
WEATHER BY HOUR - FEBRUARY 4, 2013
[ °C ]   °F
Local TimeTemperatureDewpointHumidityBarometerVisibilityWind DirectionWind SpeedGust SpeedPrecipitationEventsConditions
2:54 AM41.0 °F39.0 °F93 %30.19 in10.0 miEast (90°)4.6 mphClear
3:54 AM42.1 °F39.9 °F92 %30.17 in10.0 miEast (90°)8.1 mphClear
4:54 AM39.0 °F37.9 °F96 %30.17 in10.0 miSE (130°)4.6 mphClear
5:44 AM39.2 °F37.4 °F93 %30.13 in10.0 miCalmScattered Clouds
5:54 AM41.0 °F39.0 °F93 %30.17 in10.0 miCalmScattered Clouds
6:18 AM42.8 °F41.0 °F93 %30.13 in5.0 miSW (230°)4.6 mphMostly Cloudy
6:34 AM42.8 °F42.8 °F100 %30.14 in1.8 miWSW (240°)4.6 mphOvercast
6:49 AM42.8 °F41.0 °F93 %30.14 in0.8 miWSW (250°)6.9 mphOvercast
6:54 AM41.0 °F41.0 °F100 %30.19 in0.8 miWSW (240°)5.8 mphOvercast
7:06 AM41.0 °F39.2 °F93 %30.15 in2.0 miSW (220°)5.8 mphOvercast
7:17 AM39.2 °F39.2 °F100 %30.15 in4.0 miSSW (210°)6.9 mphOvercast
7:54 AM39.9 °F39.9 °F100 %30.20 in0.8 miCalmOvercast
8:03 AM39.2 °F37.4 °F93 %30.16 in0.2 miCalmFogFog
8:54 AM41.0 °F41.0 °F100 %30.21 in0.2 miCalmFogFog
9:04 AM42.8 °F41.0 °F93 %30.17 in1.2 miCalmMostly Cloudy
9:07 AM42.8 °F41.0 °F93 %30.17 in4.0 miCalmMostly Cloudy
9:17 AM42.8 °F41.0 °F93 %30.18 in9.0 miCalmScattered Clouds
9:54 AM44.1 °F41.0 °F89 %30.22 in7.0 miNW (310°)5.8 mphPartly Cloudy
10:54 AM46.9 °F42.1 °F83 %30.21 in9.0 miWest (260°)3.5 mphClear
11:54 AM51.1 °F44.1 °F77 %30.18 in8.0 miWest (260°)4.6 mphClear
12:54 PM53.1 °F46.0 °F77 %30.15 in7.0 miWest (280°)6.9 mphClear
1:15 PM51.8 °F46.4 °F82 %30.12 in5.0 miWest (280°)10.4 mphHaze
1:54 PM52.0 °F46.0 °F80 %30.14 in8.0 miWest (270°)8.1 mphClear
2:54 PM53.1 °F46.9 °F80 %30.13 in10.0 miNW (310°)8.1 mphScattered Clouds
3:01 PM53.6 °F46.4 °F77 %30.09 in10.0 miWNW (300°)8.1 mphPartly Cloudy
3:46 PM51.8 °F46.4 °F82 %30.09 in10.0 miWest (270°)9.2 mphMostly Cloudy
3:54 PM52.0 °F46.9 °F83 %30.13 in10.0 miWNW (300°)6.9 mphMostly Cloudy
4:54 PM51.1 °F46.9 °F86 %30.12 in10.0 miNW (310°)4.6 mphOvercast
5:54 PM50.0 °F46.9 °F89 %30.12 in9.0 miCalmOvercast
6:54 PM48.9 °F46.0 °F90 %30.12 in10.0 miWest (270°)3.5 mphOvercast
7:54 PM48.9 °F46.9 °F93 %30.13 in8.0 miWNW (290°)5.8 mphOvercast
8:54 PM50.0 °F46.9 °F89 %30.14 in9.0 miWSW (240°)5.8 mphOvercast
9:54 PM50.0 °F46.9 °F89 %30.16 in9.0 miWSW (250°)4.6 mphOvercast
10:54 PM48.9 °F46.0 °F90 %30.15 in10.0 miWSW (250°)5.8 mphOvercast
11:54 PM48.9 °F46.0 °F90 %30.16 in10.0 miWSW (250°)6.9 mphOvercast
Hourly data recorded from KMRY, located miles away from Pacific Grove, California







STORIES FROM OUR PARTNERS